,,PA_Meas_PMT16A,,PR_Meas_QMR101_102,,RH_Meas_QMH101,,SR_Meas_QMS101,,TA_Meas_QMH101,,GenWind,,GenWind,
time,status,PA,status,PR,status,RH,status,SR,status,TA,status,DirAvg,status,SpdAvg,
2015-01-16, 07:26:04,VALID,919.499,VALID,0,VALID,96.8326,VALID,124.739,VALID,18.8853,VALID,137,VALID,1.52539,
2015-01-16, 07:27:04,VALID,919.495,VALID,0,VALID,96.8326,VALID,145.046,VALID,18.9243,VALID,129,VALID,1.39141,
2015-01-16, 07:28:04,VALID,919.491,VALID,0,VALID,96.8403,VALID,137.202,VALID,19.0218,VALID,161,VALID,1.24492,
2015-01-16, 07:29:04,VALID,919.518,VALID,0,VALID,96.8326,VALID,119.582,VALID,19.0803,VALID,161,VALID,1.56484,
2015-01-16, 07:30:04,VALID,919.539,VALID,0,VALID,96.825,VALID,136.88,VALID,19.1778,VALID,148,VALID,0.723437,
2015-01-16, 07:31:04,VALID,919.56,VALID,0,VALID,96.7564,VALID,120.764,VALID,19.2168,VALID,150,VALID,1.0957,
2015-01-16, 07:32:04,VALID,919.552,VALID,0,VALID,96.6192,VALID,143.004,VALID,19.2753,VALID,161,VALID,0.873438,
2015-01-16, 07:33:04,VALID,919.591,VALID,0,VALID,96.4972,VALID,190.386,VALID,19.3533,VALID,152,VALID,0.859375,
2015-01-16, 07:34:04,VALID,919.575,VALID,0,VALID,96.4057,VALID,195.435,VALID,19.4313,VALID,156,VALID,1.49805,
2015-01-16, 07:35:04,VALID,919.61,VALID,0,VALID,96.0245,VALID,198.014,VALID,19.4703,VALID,166,VALID,1.33516,
2015-01-16, 07:36:04,VALID,919.629,VALID,0,VALID,95.7654,VALID,199.733,VALID,19.5483,VALID,174,VALID,1.33672,
2015-01-16, 07:37:04,VALID,919.627,VALID,0,VALID,95.6815,VALID,200.808,VALID,19.6248,VALID,167,VALID,0.0628906,
2015-01-16, 07:38:04,VALID,919.629,VALID,0,VALID,95.5443,VALID,202.419,VALID,19.7028,VALID,147,VALID,0.176953,
2015-01-16, 07:39:04,VALID,919.631,VALID,0,VALID,95.2775,VALID,203.279,VALID,19.7823,VALID,157,VALID,0.881641,
2015-01-16, 07:40:04,VALID,919.631,VALID,0,VALID,94.2178,VALID,203.601,VALID,19.8003,VALID,164,VALID,1.08242,
2015-01-16, 07:41:04,VALID,919.652,VALID,0,VALID,94.4846,VALID,199.948,VALID,19.9188,VALID,158,VALID,0.730469,
2015-01-16, 07:42:04,VALID,919.68,VALID,0,VALID,93.6308,VALID,194.898,VALID,19.9563,VALID,169,VALID,1.11367,
2015-01-16, 07:43:04,VALID,919.697,VALID,0,VALID,92.9066,VALID,168.038,VALID,20.0163,VALID,171,VALID,1.04141,
2015-01-16, 07:44:04,VALID,919.712,VALID,0,VALID,91.8927,VALID,198.229,VALID,19.9758,VALID,164,VALID,1.18359,
2015-01-16, 07:45:04,VALID,919.724,VALID,0,VALID,91.9384,VALID,202.312,VALID,20.0148,VALID,148,VALID,0.964453,
2015-01-16, 07:46:04,VALID,919.727,VALID,0,VALID,91.8317,VALID,205.427,VALID,20.0148,VALID,151,VALID,0.683203,
2015-01-16, 07:47:04,VALID,919.757,VALID,0,VALID,91.7631,VALID,206.824,VALID,20.0343,VALID,167,VALID,1.12695,
2015-01-16, 07:48:04,VALID,919.756,VALID,0,VALID,91.237,VALID,211.229,VALID,20.0553,VALID,144,VALID,1.85508,
2015-01-16, 07:49:04,VALID,919.804,VALID,0,VALID,91.5801,VALID,205.642,VALID,20.0928,VALID,155,VALID,0.941406,
2015-01-16, 07:50:04,VALID,919.817,VALID,0,VALID,91.42,VALID,216.279,VALID,20.1513,VALID,174,VALID,0.976172,
2015-01-16, 07:51:04,VALID,919.81,VALID,0,VALID,91.3971,VALID,216.601,VALID,20.2293,VALID,157,VALID,0.903516,
2015-01-16, 07:52:04,VALID,919.827,VALID,0,VALID,91.3209,VALID,203.923,VALID,20.3058,VALID,167,VALID,0.905078,
2015-01-16, 07:53:04,VALID,919.836,VALID,0,VALID,90.9321,VALID,154.5,VALID,20.3253,VALID,140,VALID,0.639453,
2015-01-16, 07:54:04,VALID,919.88,VALID,0,VALID,89.8877,VALID,124.309,VALID,20.3269,VALID,135,VALID,1.56094,
2015-01-16, 07:55:04,VALID,919.883,VALID,0,VALID,89.8572,VALID,110.987,VALID,20.2863,VALID,151,VALID,0.667969,
2015-01-16, 07:56:04,VALID,919.887,VALID,0,VALID,90.2841,VALID,109.483,VALID,20.3074,VALID,138,VALID,0.607031,
2015-01-16, 07:57:04,VALID,919.919,VALID,0,VALID,90.0554,VALID,143.112,VALID,20.2879,VALID,125,VALID,1.35352,
2015-01-16, 07:58:04,VALID,919.948,VALID,0,VALID,90.0173,VALID,196.617,VALID,20.2293,VALID,153,VALID,1.70625,
2015-01-16, 07:59:04,VALID,919.949,VALID,0,VALID,90.2994,VALID,164.6,VALID,20.2083,VALID,127,VALID,0.908984,
2015-01-16, 08:00:04,VALID,919.932,VALID,0,VALID,89.9563,VALID,143.112,VALID,20.2083,VALID,131,VALID,2.08867,
2015-01-16, 08:01:04,VALID,919.937,VALID,0,VALID,90.063,VALID,114.64,VALID,20.2098,VALID,131,VALID,1.42891,
2015-01-16, 08:02:04,VALID,919.923,VALID,0,VALID,90.307,VALID,108.73,VALID,20.1888,VALID,133,VALID,1.48789,
2015-01-16, 08:03:04,VALID,919.962,VALID,0,VALID,89.7429,VALID,110.772,VALID,20.1888,VALID,156,VALID,0.977734,
2015-01-16, 08:04:04,VALID,919.955,VALID,0,VALID,90.3527,VALID,104.755,VALID,20.2083,VALID,137,VALID,1.24805,
2015-01-16, 08:05:04,VALID,919.966,VALID,0,VALID,90.1774,VALID,105.722,VALID,20.1693,VALID,141,VALID,2.25703,
2015-01-16, 08:06:04,VALID,919.959,VALID,0,VALID,90.0859,VALID,120.764,VALID,20.1303,VALID,151,VALID,1.32852,
2015-01-16, 08:07:04,VALID,919.964,VALID,0,VALID,90.307,VALID,158.476,VALID,20.0913,VALID,107,VALID,1.3832,
2015-01-16, 08:08:04,VALID,919.955,VALID,0,VALID,90.7415,VALID,142.682,VALID,20.1123,VALID,130,VALID,1.80625,
2015-01-16, 08:09:04,VALID,919.999,VALID,0,VALID,90.9245,VALID,133.657,VALID,20.0523,VALID,99,VALID,0.808594,
2015-01-16, 08:10:04,VALID,919.993,VALID,0,VALID,90.8635,VALID,171.584,VALID,20.0928,VALID,104,VALID,1.10273,
2015-01-16, 08:11:04,VALID,920.01,VALID,0,VALID,90.5586,VALID,281.281,VALID,20.1318,VALID,128,VALID,1.03359,
2015-01-16, 08:12:04,VALID,920.051,VALID,0,VALID,90.2003,VALID,324.902,VALID,20.2489,VALID,76,VALID,2.41602,
2015-01-16, 08:13:04,VALID,920.064,VALID,0,VALID,90.5891,VALID,270.752,VALID,20.3464,VALID,88,VALID,1.63789,
2015-01-16, 08:14:04,VALID,920.063,VALID,0,VALID,91.0541,VALID,138.169,VALID,20.4049,VALID,94,VALID,1.75195,
2015-01-16, 08:15:04,VALID,920.069,VALID,0,VALID,91.2599,VALID,134.194,VALID,20.4244,VALID,110,VALID,1.42422,
2015-01-16, 08:16:04,VALID,920.076,VALID,0,VALID,90.9016,VALID,231.643,VALID,20.4049,VALID,80,VALID,1.36133,
2015-01-16, 08:17:04,VALID,920.087,VALID,0,VALID,90.9702,VALID,290.091,VALID,20.3854,VALID,92,VALID,1.17344,
2015-01-16, 08:18:04,VALID,920.065,VALID,0,VALID,90.6043,VALID,273.438,VALID,20.4049,VALID,86,VALID,1.58789,
2015-01-16, 08:19:04,VALID,920.045,VALID,0,VALID,90.2308,VALID,136.88,VALID,20.4618,VALID,120,VALID,1.47695,
2015-01-16, 08:20:04,VALID,920.064,VALID,0,VALID,88.9424,VALID,115.714,VALID,20.4634,VALID,109,VALID,2.93477,
2015-01-16, 08:21:04,VALID,920.062,VALID,0,VALID,89.4837,VALID,124.202,VALID,20.4634,VALID,106,VALID,2.05,
2015-01-16, 08:22:04,VALID,920.021,VALID,0,VALID,89.8496,VALID,196.08,VALID,20.4244,VALID,89,VALID,2.03594,
2015-01-16, 08:23:04,VALID,920.043,VALID,0,VALID,89.9487,VALID,204.783,VALID,20.3838,VALID,109,VALID,1.94961,
2015-01-16, 08:24:04,VALID,919.997,VALID,0,VALID,89.9487,VALID,321.034,VALID,20.4033,VALID,95,VALID,2.05898,
2015-01-16, 08:25:04,VALID,919.998,VALID,0,VALID,89.9792,VALID,316.629,VALID,20.5219,VALID,59,VALID,1.07813,
2015-01-16, 08:26:04,VALID,920.038,VALID,0,VALID,89.9029,VALID,314.158,VALID,20.6975,VALID,117,VALID,1.60469,
2015-01-16, 08:27:04,VALID,919.991,VALID,0,VALID,88.4621,VALID,316.414,VALID,20.8145,VALID,108,VALID,1.81328,
2015-01-16, 08:28:04,VALID,919.993,VALID,0,VALID,87.0899,VALID,319.423,VALID,20.9316,VALID,117,VALID,2.2625,
2015-01-16, 08:29:04,VALID,919.965,VALID,0,VALID,85.245,VALID,324.687,VALID,20.9316,VALID,99,VALID,2.42109,
2015-01-16, 08:30:04,VALID,919.992,VALID,0,VALID,85.1993,VALID,329.415,VALID,20.9706,VALID,116,VALID,2.73555,
2015-01-16, 08:31:04,VALID,919.976,VALID,0,VALID,87.0975,VALID,333.282,VALID,21.0665,VALID,83,VALID,1.50781,
2015-01-16, 08:32:04,VALID,919.981,VALID,0,VALID,85.0392,VALID,336.828,VALID,21.125,VALID,104,VALID,2.28359,
2015-01-16, 08:33:04,VALID,920.004,VALID,0,VALID,86.1217,VALID,342.308,VALID,21.2632,VALID,88,VALID,2.21328,
2015-01-16, 08:34:04,VALID,920.021,VALID,0,VALID,86.2971,VALID,344.134,VALID,21.2811,VALID,98,VALID,1.83555,
2015-01-16, 08:35:04,VALID,920.034,VALID,0,VALID,85.3365,VALID,357.349,VALID,21.3201,VALID,99,VALID,2.72969,
2015-01-16, 08:36:04,VALID,920.051,VALID,0,VALID,85.8168,VALID,368.953,VALID,21.3803,VALID,100,VALID,1.62852,
2015-01-16, 08:37:04,VALID,920.053,VALID,0,VALID,84.6809,VALID,366.374,VALID,21.3981,VALID,81,VALID,1.5957,
2015-01-16, 08:38:04,VALID,920.02,VALID,0,VALID,85.0392,VALID,232.825,VALID,21.4762,VALID,97,VALID,2.22695,
2015-01-16, 08:39:04,VALID,920.032,VALID,0,VALID,86.0836,VALID,165.889,VALID,21.5932,VALID,92,VALID,1.58906,
2015-01-16, 08:40:04,VALID,920.026,VALID,0,VALID,82.8132,VALID,372.498,VALID,21.5542,VALID,127,VALID,2.34844,
2015-01-16, 08:41:04,VALID,920.027,VALID,0,VALID,83.0876,VALID,216.816,VALID,21.5737,VALID,88,VALID,2.95195,
2015-01-16, 08:42:04,VALID,920.012,VALID,0,VALID,82.7293,VALID,235.081,VALID,21.5347,VALID,93,VALID,3.01523,
2015-01-16, 08:43:04,VALID,920.02,VALID,0,VALID,82.6988,VALID,131.723,VALID,21.4567,VALID,104,VALID,2.06328,
2015-01-16, 08:44:04,VALID,920.022,VALID,0,VALID,84.3683,VALID,105.077,VALID,21.3965,VALID,98,VALID,1.46211,
2015-01-16, 08:45:04,VALID,920.03,VALID,0,VALID,84.4903,VALID,104.218,VALID,21.3591,VALID,118,VALID,2.03594,
2015-01-16, 08:46:04,VALID,920.019,VALID,0,VALID,84.6962,VALID,107.871,VALID,21.3201,VALID,103,VALID,1.53945,
2015-01-16, 08:47:04,VALID,920.034,VALID,0,VALID,84.3455,VALID,130.326,VALID,21.2616,VALID,134,VALID,2.1625,
2015-01-16, 08:48:04,VALID,920.049,VALID,0,VALID,85.4509,VALID,124.417,VALID,21.2015,VALID,86,VALID,1.62578,
2015-01-16, 08:49:04,VALID,920.015,VALID,0,VALID,85.9464,VALID,121.301,VALID,21.164,VALID,122,VALID,1.89531,
2015-01-16, 08:50:04,VALID,920.025,VALID,0,VALID,85.3365,VALID,111.416,VALID,21.0844,VALID,111,VALID,1.7082,
2015-01-16, 08:51:04,VALID,920.024,VALID,0,VALID,85.6643,VALID,141.07,VALID,21.0454,VALID,108,VALID,2.12812,
2015-01-16, 08:52:04,VALID,919.978,VALID,0,VALID,84.3988,VALID,123.342,VALID,20.9869,VALID,120,VALID,2.55234,
2015-01-16, 08:53:04,VALID,919.984,VALID,0,VALID,85.0011,VALID,133.549,VALID,21.0275,VALID,127,VALID,2.18789,
2015-01-16, 08:54:04,VALID,920.016,VALID,0,VALID,85.1307,VALID,109.16,VALID,20.9674,VALID,122,VALID,2.51523,
2015-01-16, 08:55:04,VALID,919.983,VALID,0,VALID,86.1827,VALID,112.921,VALID,20.9674,VALID,68,VALID,1.42969,
2015-01-16, 08:56:04,VALID,920.002,VALID,0,VALID,86.2971,VALID,130.326,VALID,20.9706,VALID,106,VALID,1.51172,
2015-01-16, 08:57:04,VALID,919.982,VALID,0,VALID,86.9527,VALID,146.765,VALID,20.9885,VALID,80,VALID,1.26094,
2015-01-16, 08:58:04,VALID,919.999,VALID,0,VALID,85.672,VALID,169.005,VALID,20.969,VALID,117,VALID,1.85312,
2015-01-16, 08:59:04,VALID,920.009,VALID,0,VALID,85.9921,VALID,209.403,VALID,21.0096,VALID,116,VALID,1.2293,
2015-01-16, 09:00:04,VALID,920.028,VALID,0,VALID,86.5334,VALID,149.558,VALID,21.0681,VALID,93,VALID,1.33555,
2015-01-16, 09:01:04,VALID,919.975,VALID,0,VALID,85.4128,VALID,140.64,VALID,21.0665,VALID,141,VALID,2.0957,
2015-01-16, 09:02:04,VALID,919.998,VALID,0,VALID,85.306,VALID,158.261,VALID,21.086,VALID,132,VALID,2.02539,
2015-01-16, 09:03:04,VALID,920.042,VALID,0,VALID,85.5805,VALID,169.112,VALID,21.086,VALID,96,VALID,2.28398,
2015-01-16, 09:04:04,VALID,920.019,VALID,0,VALID,85.3289,VALID,181.898,VALID,21.086,VALID,91,VALID,2.07109,
2015-01-16, 09:05:04,VALID,919.999,VALID,0,VALID,84.3379,VALID,182.65,VALID,21.086,VALID,129,VALID,1.79844,
2015-01-16, 09:06:04,VALID,920.013,VALID,0,VALID,84.8258,VALID,163.633,VALID,21.1445,VALID,83,VALID,1.02891,
2015-01-16, 09:07:04,VALID,920.004,VALID,0,VALID,83.9491,VALID,153.104,VALID,21.1852,VALID,104,VALID,1.50664,
2015-01-16, 09:08:04,VALID,920.013,VALID,0,VALID,83.8957,VALID,156.542,VALID,21.2437,VALID,99,VALID,1.79609,
2015-01-16, 09:09:04,VALID,920.009,VALID,0,VALID,84.4446,VALID,174.162,VALID,21.2421,VALID,98,VALID,0.685547,
2015-01-16, 09:10:04,VALID,920.014,VALID,0,VALID,84.376,VALID,171.798,VALID,21.3006,VALID,116,VALID,1.00625,
2015-01-16, 09:11:04,VALID,920.012,VALID,0,VALID,85.3365,VALID,329.522,VALID,21.3591,VALID,83,VALID,1.02852,
2015-01-16, 09:12:04,VALID,920.01,VALID,0,VALID,85.2755,VALID,260.222,VALID,21.4355,VALID,124,VALID,1.02148,
2015-01-16, 09:13:04,VALID,919.953,VALID,0,VALID,84.902,VALID,376.151,VALID,21.5916,VALID,112,VALID,0.888281,
2015-01-16, 09:14:04,VALID,919.963,VALID,0,VALID,84.4141,VALID,402.26,VALID,21.7867,VALID,96,VALID,0.657422,
2015-01-16, 09:15:04,VALID,919.942,VALID,0,VALID,83.1486,VALID,185.766,VALID,22.003,VALID,75,VALID,1.70391,
2015-01-16, 09:16:04,VALID,919.926,VALID,0,VALID,82.9504,VALID,153.748,VALID,22.0403,VALID,127,VALID,1.40391,
2015-01-16, 09:17:04,VALID,919.895,VALID,0,VALID,80.8921,VALID,173.195,VALID,22.0403,VALID,56,VALID,2.04141,
2015-01-16, 09:18:04,VALID,919.956,VALID,0,VALID,80.5338,VALID,208.436,VALID,22.0013,VALID,98,VALID,1.29297,
2015-01-16, 09:19:04,VALID,919.953,VALID,0,VALID,79.6799,VALID,625.63,VALID,21.9818,VALID,120,VALID,2.17617,
2015-01-16, 09:20:04,VALID,919.988,VALID,0,VALID,81.4257,VALID,221.114,VALID,22.0208,VALID,128,VALID,1.28594,
2015-01-16, 09:21:04,VALID,919.956,VALID,0,VALID,81.0369,VALID,173.088,VALID,22.1184,VALID,78,VALID,2.03281,
2015-01-16, 09:22:04,VALID,919.963,VALID,0,VALID,82.2262,VALID,163.633,VALID,22.1379,VALID,127,VALID,0.974219,
2015-01-16, 09:23:04,VALID,919.981,VALID,0,VALID,81.2885,VALID,181.038,VALID,22.0403,VALID,109,VALID,1.60742,
2015-01-16, 09:24:04,VALID,919.944,VALID,0,VALID,80.9759,VALID,177.278,VALID,22.0013,VALID,99,VALID,2.08281,
2015-01-16, 09:25:04,VALID,919.966,VALID,0,VALID,81.8374,VALID,178.782,VALID,21.9606,VALID,102,VALID,0.960938,
2015-01-16, 09:26:04,VALID,919.943,VALID,0,VALID,83.545,VALID,475.857,VALID,22.0403,VALID,85,VALID,0.746484,
2015-01-16, 09:27:04,VALID,919.929,VALID,0,VALID,81.8984,VALID,321.894,VALID,22.1769,VALID,97,VALID,1.62031,
2015-01-16, 09:28:04,VALID,919.929,VALID,0,VALID,81.6087,VALID,169.112,VALID,22.2745,VALID,119,VALID,1.37812,
2015-01-16, 09:29:04,VALID,919.943,VALID,0,VALID,78.2467,VALID,216.172,VALID,22.333,VALID,122,VALID,1.66641,
2015-01-16, 09:30:04,VALID,919.948,VALID,0,VALID,78.666,VALID,191.89,VALID,22.2923,VALID,127,VALID,0.976953,
2015-01-16, 09:31:04,VALID,919.921,VALID,0,VALID,79.7486,VALID,272.686,VALID,22.294,VALID,128,VALID,1.54688,
2015-01-16, 09:32:04,VALID,919.927,VALID,0,VALID,80.2822,VALID,269.892,VALID,22.333,VALID,120,VALID,1.3043,
2015-01-16, 09:33:04,VALID,919.918,VALID,0,VALID,79.0929,VALID,183.08,VALID,22.1947,VALID,127,VALID,1.95352,
2015-01-16, 09:34:04,VALID,919.944,VALID,0,VALID,81.1436,VALID,645.829,VALID,22.1947,VALID,107,VALID,1.14688,
2015-01-16, 09:35:04,VALID,919.913,VALID,0,VALID,80.8463,VALID,529.9,VALID,22.3313,VALID,100,VALID,1.15664,
2015-01-16, 09:36:04,VALID,919.952,VALID,0,VALID,80.3203,VALID,434.922,VALID,22.4679,VALID,133,VALID,1.60742,
2015-01-16, 09:37:04,VALID,919.927,VALID,0,VALID,79.6799,VALID,517.759,VALID,22.5867,VALID,128,VALID,1.68906,
2015-01-16, 09:38:04,VALID,919.944,VALID,0,VALID,79.7867,VALID,605.431,VALID,22.663,VALID,127,VALID,1.32148,
2015-01-16, 09:39:04,VALID,919.933,VALID,0,VALID,79.4436,VALID,436.963,VALID,22.7996,VALID,113,VALID,2.31836,
2015-01-16, 09:40:04,VALID,919.925,VALID,0,VALID,75.8606,VALID,351.977,VALID,22.9557,VALID,85,VALID,2.12891,
2015-01-16, 09:41:04,VALID,919.945,VALID,0,VALID,77.9342,VALID,548.595,VALID,23.016,VALID,98,VALID,1.83555,
2015-01-16, 09:42:04,VALID,919.963,VALID,0,VALID,75.6548,VALID,223.37,VALID,23.0356,VALID,146,VALID,1.2832,
2015-01-16, 09:43:04,VALID,919.94,VALID,0,VALID,76.9431,VALID,440.401,VALID,23.0941,VALID,153,VALID,1.20273,
2015-01-16, 09:44:04,VALID,919.911,VALID,0,VALID,77.4996,VALID,438.252,VALID,23.2893,VALID,150,VALID,1.37109,
2015-01-16, 09:45:04,VALID,919.881,VALID,0,VALID,76.905,VALID,338.977,VALID,23.3869,VALID,153,VALID,2.07813,
2015-01-16, 09:46:04,VALID,919.872,VALID,0,VALID,76.7221,VALID,260.867,VALID,23.465,VALID,145,VALID,1.37539,
2015-01-16, 09:47:04,VALID,919.88,VALID,0,VALID,73.909,VALID,215.42,VALID,23.3283,VALID,106,VALID,2.64336,
2015-01-16, 09:48:04,VALID,919.846,VALID,0,VALID,76.4857,VALID,172.121,VALID,23.2875,VALID,113,VALID,1.07656,
2015-01-16, 09:49:04,VALID,919.86,VALID,0,VALID,78.2696,VALID,143.649,VALID,23.465,VALID,106,VALID,1.21172,
2015-01-16, 09:50:04,VALID,919.825,VALID,0,VALID,76.2418,VALID,130.756,VALID,23.4241,VALID,75,VALID,1.55898,
2015-01-16, 09:51:04,VALID,919.788,VALID,0,VALID,75.144,VALID,121.946,VALID,23.5803,VALID,148,VALID,0.916797,
2015-01-16, 09:52:04,VALID,919.793,VALID,0,VALID,73.9853,VALID,119.904,VALID,23.7187,VALID,130,VALID,1.47773,
2015-01-16, 09:53:04,VALID,919.776,VALID,0,VALID,74.8086,VALID,123.772,VALID,23.6797,VALID,124,VALID,2.28398,
2015-01-16, 09:54:04,VALID,919.759,VALID,0,VALID,72.4911,VALID,124.847,VALID,23.5998,VALID,145,VALID,2.5543,
2015-01-16, 09:55:04,VALID,919.737,VALID,0,VALID,73.8785,VALID,116.789,VALID,23.5608,VALID,135,VALID,1.71797,
2015-01-16, 09:56:04,VALID,919.727,VALID,0,VALID,74.5113,VALID,111.524,VALID,23.5998,VALID,137,VALID,0.86875,
2015-01-16, 09:57:04,VALID,919.697,VALID,0,VALID,75.4261,VALID,115.284,VALID,23.7169,VALID,159,VALID,1.48555,
2015-01-16, 09:58:04,VALID,919.678,VALID,0,VALID,78.4526,VALID,124.847,VALID,23.8145,VALID,87,VALID,1.57852,
2015-01-16, 09:59:04,VALID,919.654,VALID,0,VALID,73.1467,VALID,135.698,VALID,23.8536,VALID,67,VALID,2.27187,
2015-01-16, 10:00:04,VALID,919.691,VALID,0,VALID,71.3171,VALID,140.855,VALID,23.8322,VALID,110,VALID,3.4918,
2015-01-16, 10:01:04,VALID,919.662,VALID,0,VALID,71.0045,VALID,143.004,VALID,23.5395,VALID,120,VALID,2.45937,
2015-01-16, 10:02:04,VALID,919.624,VALID,0,VALID,72.1633,VALID,145.905,VALID,23.4827,VALID,84,VALID,2.58477,
2015-01-16, 10:03:04,VALID,919.622,VALID,0,VALID,75.4337,VALID,151.17,VALID,23.5199,VALID,135,VALID,1.93789,
2015-01-16, 10:04:04,VALID,919.647,VALID,0,VALID,73.3449,VALID,162.236,VALID,23.5395,VALID,140,VALID,1.90195,
2015-01-16, 10:05:04,VALID,919.612,VALID,0,VALID,76.7449,VALID,184.691,VALID,23.6566,VALID,116,VALID,1.8082,
2015-01-16, 10:06:04,VALID,919.616,VALID,0,VALID,74.7705,VALID,233.147,VALID,23.7737,VALID,150,VALID,1.65234,
2015-01-16, 10:07:04,VALID,919.608,VALID,0,VALID,73.5888,VALID,318.456,VALID,23.8713,VALID,134,VALID,1.92383,
2015-01-16, 10:08:04,VALID,919.593,VALID,0,VALID,72.9561,VALID,425.897,VALID,23.9689,VALID,121,VALID,2.32188,
2015-01-16, 10:09:04,VALID,919.578,VALID,0,VALID,70.5166,VALID,530.974,VALID,23.9512,VALID,185,VALID,2.99062,
2015-01-16, 10:10:04,VALID,919.568,VALID,0,VALID,73.5888,VALID,641.424,VALID,23.9707,VALID,146,VALID,1.83945,
2015-01-16, 10:11:04,VALID,919.599,VALID,0,VALID,70.9588,VALID,721.682,VALID,23.9707,VALID,110,VALID,2.7293,
2015-01-16, 10:12:04,VALID,919.57,VALID,0,VALID,68.5345,VALID,763.692,VALID,23.8731,VALID,120,VALID,2.58984,
2015-01-16, 10:13:04,VALID,919.564,VALID,0,VALID,72.4453,VALID,782.279,VALID,24.0097,VALID,80,VALID,1.76445,
2015-01-16, 10:14:04,VALID,919.564,VALID,0,VALID,72.7121,VALID,814.834,VALID,24.0683,VALID,122,VALID,2.08164,
2015-01-16, 10:15:04,VALID,919.557,VALID,0,VALID,72.7274,VALID,307.282,VALID,24.0097,VALID,124,VALID,2.89219,
2015-01-16, 10:16:04,VALID,919.556,VALID,0,VALID,73.9166,VALID,288.909,VALID,23.9902,VALID,105,VALID,1.66719,
2015-01-16, 10:17:04,VALID,919.564,VALID,0,VALID,74.3588,VALID,846.851,VALID,23.8713,VALID,112,VALID,2.13398,
2015-01-16, 10:18:04,VALID,919.593,VALID,0,VALID,72.0413,VALID,856.736,VALID,23.9316,VALID,132,VALID,2.09648,
2015-01-16, 10:19:04,VALID,919.541,VALID,0,VALID,72.1709,VALID,335.324,VALID,23.8127,VALID,183,VALID,0.913672,
2015-01-16, 10:20:04,VALID,919.523,VALID,0,VALID,73.7337,VALID,555.578,VALID,23.8908,VALID,94,VALID,2.27148,
2015-01-16, 10:21:04,VALID,919.555,VALID,0,VALID,75.5023,VALID,328.985,VALID,23.8127,VALID,82,VALID,2.31602,
2015-01-16, 10:22:04,VALID,919.54,VALID,0,VALID,70.0592,VALID,738.55,VALID,23.7151,VALID,64,VALID,3.20039,
2015-01-16, 10:23:04,VALID,919.535,VALID,0,VALID,73.2915,VALID,855.984,VALID,23.7151,VALID,104,VALID,1.76992,
2015-01-16, 10:24:04,VALID,919.533,VALID,0,VALID,73.2305,VALID,485.527,VALID,23.7932,VALID,128,VALID,2.43945,
2015-01-16, 10:25:04,VALID,919.534,VALID,0,VALID,72.3157,VALID,246.9,VALID,23.8127,VALID,125,VALID,2.36602,
2015-01-16, 10:26:04,VALID,919.51,VALID,0,VALID,74.2826,VALID,211.229,VALID,23.8127,VALID,101,VALID,1.48867,
2015-01-16, 10:27:04,VALID,919.504,VALID,0,VALID,74.0996,VALID,244.644,VALID,23.7133,VALID,58,VALID,2.43281,
2015-01-16, 10:28:04,VALID,919.517,VALID,0,VALID,75.6395,VALID,209.833,VALID,23.7151,VALID,73,VALID,1.34844,
2015-01-16, 10:29:04,VALID,919.5,VALID,0,VALID,74.7323,VALID,221.114,VALID,23.6175,VALID,125,VALID,2.13086,
2015-01-16, 10:30:04,VALID,919.525,VALID,0,VALID,73.3678,VALID,848.893,VALID,23.4809,VALID,128,VALID,1.64844,
2015-01-16, 10:31:04,VALID,919.505,VALID,0,VALID,73.7108,VALID,598.984,VALID,23.5199,VALID,95,VALID,2.59648,
2015-01-16, 10:32:04,VALID,919.49,VALID,0,VALID,74.3283,VALID,403.549,VALID,23.5395,VALID,74,VALID,2.92539,
2015-01-16, 10:33:04,VALID,919.507,VALID,0,VALID,71.9879,VALID,268.71,VALID,23.4809,VALID,115,VALID,2.18359,
2015-01-16, 10:34:04,VALID,919.49,VALID,0,VALID,73.2763,VALID,258.718,VALID,23.3443,VALID,99,VALID,2.71953,
2015-01-16, 10:35:04,VALID,919.448,VALID,0,VALID,73.3601,VALID,846.529,VALID,23.2857,VALID,113,VALID,2.57266,
2015-01-16, 10:36:04,VALID,919.474,VALID,0,VALID,74.9458,VALID,251.09,VALID,23.3053,VALID,115,VALID,1.85898,
2015-01-16, 10:37:04,VALID,919.428,VALID,0,VALID,75.4718,VALID,165.782,VALID,23.4241,VALID,112,VALID,1.26055,
2015-01-16, 10:38:04,VALID,919.417,VALID,0,VALID,75.5785,VALID,170.939,VALID,23.4614,VALID,79,VALID,2.43672,
2015-01-16, 10:39:04,VALID,919.446,VALID,0,VALID,72.0184,VALID,210.692,VALID,23.3638,VALID,74,VALID,2.32305,
2015-01-16, 10:40:04,VALID,919.46,VALID,0,VALID,72.5292,VALID,261.404,VALID,23.268,VALID,107,VALID,1.88398,
2015-01-16, 10:41:04,VALID,919.433,VALID,0,VALID,74.7247,VALID,858.562,VALID,23.2077,VALID,82,VALID,1.76992,
2015-01-16, 10:42:04,VALID,919.463,VALID,0,VALID,74.9229,VALID,822.892,VALID,23.3265,VALID,67,VALID,1.69805,
2015-01-16, 10:43:04,VALID,919.449,VALID,0,VALID,74.4579,VALID,780.13,VALID,23.5395,VALID,75,VALID,1.14766,
2015-01-16, 10:44:04,VALID,919.493,VALID,0,VALID,74.0767,VALID,757.03,VALID,23.8127,VALID,127,VALID,1.85234,
2015-01-16, 10:45:04,VALID,919.449,VALID,0,VALID,71.3857,VALID,758.642,VALID,23.9884,VALID,126,VALID,1.49336,
2015-01-16, 10:46:04,VALID,919.443,VALID,0,VALID,72.2776,VALID,763.477,VALID,24.086,VALID,111,VALID,1.92891,
2015-01-16, 10:47:04,VALID,919.363,VALID,0,VALID,67.4672,VALID,767.882,VALID,24.0079,VALID,96,VALID,2.6082,
2015-01-16, 10:48:04,VALID,919.348,VALID,0,VALID,69.8762,VALID,781.742,VALID,23.9493,VALID,109,VALID,2.71094,
2015-01-16, 10:49:04,VALID,919.388,VALID,0,VALID,71.2713,VALID,798.718,VALID,24.0274,VALID,97,VALID,1.67891,
2015-01-16, 10:50:04,VALID,919.342,VALID,0,VALID,71.9422,VALID,793.883,VALID,24.1445,VALID,69,VALID,3.56016,
2015-01-16, 10:51:04,VALID,919.319,VALID,0,VALID,68.9233,VALID,570.942,VALID,24.3416,VALID,147,VALID,1.50664,
2015-01-16, 10:52:04,VALID,919.328,VALID,0,VALID,64.7228,VALID,194.576,VALID,24.3007,VALID,96,VALID,3.15977,
2015-01-16, 10:53:04,VALID,919.314,VALID,0,VALID,67.0708,VALID,820.85,VALID,24.086,VALID,57,VALID,2.87227,
2015-01-16, 10:54:04,VALID,919.36,VALID,0,VALID,71.1189,VALID,806.346,VALID,24.086,VALID,76,VALID,2.50703,
2015-01-16, 10:55:04,VALID,919.335,VALID,0,VALID,71.0655,VALID,804.519,VALID,24.0665,VALID,97,VALID,2.61484,
2015-01-16, 10:56:04,VALID,919.361,VALID,0,VALID,69.1901,VALID,785.717,VALID,24.0665,VALID,103,VALID,2.34648,
2015-01-16, 10:57:04,VALID,919.333,VALID,0,VALID,68.9995,VALID,783.139,VALID,24.1445,VALID,131,VALID,1.95781,
2015-01-16, 10:58:04,VALID,919.33,VALID,0,VALID,71.683,VALID,783.246,VALID,24.2617,VALID,92,VALID,1.79844,
2015-01-16, 10:59:04,VALID,919.329,VALID,0,VALID,67.7569,VALID,786.469,VALID,24.3593,VALID,136,VALID,2.48867,
2015-01-16, 11:00:04,VALID,919.305,VALID,0,VALID,69.2816,VALID,795.065,VALID,24.5545,VALID,108,VALID,2.16133,